Location: Cahas Mountain Overlook
(37.0833°N, 80.1000°W)
Time: 08:45:47
(UTC-05:00)

S-56A Canister/Altair - Pass Details

Date: 30 November 2023
Orbit: 640 x 2488 km, 38.9° (Epoch: 25 February)

Event Time Altitude Azimuth Distance (km) Brightness Sun altitude
Rises 15:06:34 0° 269° (W) 2,947 11.2 17.9°
Reaches altitude 10° 15:08:42 10° 272° (W) 2,089 10.5 17.6°
Maximum altitude 15:13:22 74° 357° (N) 800 7.8 16.9°
Drops below altitude 10° 15:19:34 10° 83° (E) 2,746 10.0 16.1°
Sets 15:22:45 0° 85° (E) 3,968 10.7 15.6°
